Tracking 27380 objects as of 6-Jun-2023
HD Live streaming from Space Station
objects crossing your sky now

STARLINK-2041

Track STARLINK-2041 now!
10-day predictions
STARLINK-2041 is classified as:


NORAD ID: 47657
Int'l Code: 2021-012AP
Perigee: 553.6 km
Apogee: 555.1 km
Inclination: 53.1 °
Period: 95.6 minutes
Semi major axis: 6925 km
RCS: Unknown
Launch date: February 16, 2021
Source: United States (US)
Launch site: AIR FORCE EASTERN TEST RANGE (AFETR)
Your satellite tracking list
Your tracking list is empty




NASA's NSSDC Master Catalog

Two Line Element Set (TLE):
1 47657U 21012AP  23157.49025714 -.00005242  00000-0 -33337-3 0  9992
2 47657  53.0542 273.1111 0001082  99.6295 260.4816 15.06389273128177
Source of the keplerian elements: AFSPC